Weather History for Wise, VA

Change the Weather History Date:

Monday, December 9, 2013

  Actual Average Record
Temperature  
Mean Temperature 42 °F -  
Max Temperature 50 °F 45 °F 62 °F (2007)
Min Temperature 35 °F 29 °F 10 °F (2006)
Degree Days  
Heating Degree Days 22    
Moisture  
Dew Point 44 °F    
Average Humidity 99    
Maximum Humidity 100    
Minimum Humidity 76    
Precipitation  
Precipitation 0.16 in - - ()
Sea Level Pressure  
Sea Level Pressure 30.08 in    
Wind  
Wind Speed 7 mph (West)    
Max Wind Speed 14 mph    
Max Gust Speed 20 mph    
Visibility 6 miles    
Events Fog , Rain    
Averages and records for this station are not official NWS values.
T = Trace of Precipitation, MM = Missing Value Source: NWS Daily Summary

Daily Weather History Graph

Daily Weather History Graph

Search for Another Location

Airport:

Trip Planner

Search our weather history database for the weather conditions in past years. The results will help you decide how hot, cold, wet, or windy it might be!

Date:

Astronomy

Dec. 09, 2013 Rise Set
Actual Time 7:31 AM EST 5:13 PM EST
Civil Twilight 7:02 AM EST 5:42 PM EST
Nautical Twilight 6:30 AM EST 6:14 PM EST
Astronomical Twilight 5:59 AM EST 6:46 PM EST
Moon 12:32 PM EST (12/9) No Moon Set
Length of Visible Light 10h 39m
Length of Day
9h 41m
Waxing Crescent, 51% of the Moon is Illuminated
Dec 9
Waxing Crescent
Dec 17
Full
Dec 25
Last Quarter
Jan 1
New
Jan 7
First Quarter

Hourly Weather History & Observations

Time (EST) Temp. Windchill Dew Point Humidity Pressure Visibility Wind Dir Wind Speed Gust Speed Precip Events Conditions
12:15 AM 46.4 °F 41.9 °F 46.4 °F 100% 30.04 in 10.0 mi South 9.2 mph - N/A   Overcast
12:35 AM 46.4 °F 43.5 °F 46.4 °F 100% 30.03 in 10.0 mi South 5.8 mph - N/A   Overcast
12:55 AM 46.4 °F 42.4 °F 46.4 °F 100% 30.05 in 10.0 mi SSW 8.1 mph - N/A   Light Drizzle
1:15 AM 46.4 °F 42.9 °F 46.4 °F 100% 30.03 in 7.0 mi South 6.9 mph - 0.05 in Rain Rain
1:35 AM 46.4 °F 43.5 °F 46.4 °F 100% 30.03 in 10.0 mi SW 5.8 mph - 0.06 in   Drizzle
1:55 AM 46.4 °F 42.9 °F 46.4 °F 100% 30.03 in 7.0 mi SSW 6.9 mph - 0.06 in Rain Rain
2:15 AM 46.4 °F 44.3 °F 46.4 °F 100% 30.03 in 5.0 mi SW 4.6 mph - N/A   Light Drizzle
2:35 AM 46.4 °F 42.4 °F 46.4 °F 100% 30.04 in 4.0 mi SW 8.1 mph - N/A Rain Rain
2:55 AM 46.4 °F - 46.4 °F 100% 30.04 in 3.0 mi Calm Calm - 0.01 in   Light Drizzle
3:15 AM 46.4 °F 44.3 °F 46.4 °F 100% 30.04 in 7.0 mi SSW 4.6 mph - N/A   Overcast
3:35 AM 46.4 °F 44.3 °F 46.4 °F 100% 30.04 in 4.0 mi WSW 4.6 mph - 0.01 in Rain Light Rain
3:55 AM 46.4 °F 41.5 °F 46.4 °F 100% 30.04 in 10.0 mi WSW 10.4 mph - 0.01 in Rain Rain
4:15 AM 48.2 °F - 48.2 °F 100% 30.03 in 7.0 mi SSW 11.5 mph - 0.01 in Rain Light Rain
4:35 AM 48.2 °F - 48.2 °F 100% 30.03 in 5.0 mi SW 12.7 mph 17.3 mph 0.02 in   Light Drizzle
4:55 AM 48.2 °F - 48.2 °F 100% 30.02 in 5.0 mi SW 10.4 mph - 0.02 in   Light Drizzle
5:15 AM 50.0 °F - 50.0 °F 100% 30.03 in 5.0 mi SW 6.9 mph - N/A   Light Drizzle
5:35 AM 50.0 °F - 50.0 °F 100% 30.02 in 5.0 mi SW 10.4 mph - 0.01 in Rain Light Rain
5:55 AM 50.0 °F - 50.0 °F 100% 30.04 in 3.0 mi SW 12.7 mph 16.1 mph 0.01 in Rain Light Rain
6:15 AM 50.0 °F - 50.0 °F 100% 30.03 in 4.0 mi SW 9.2 mph 16.1 mph N/A   Light Drizzle
6:35 AM 50.0 °F - 50.0 °F 100% 30.04 in 5.0 mi SW 10.4 mph - N/A Rain Light Rain
6:55 AM 50.0 °F - 50.0 °F 100% 30.04 in 4.0 mi SW 9.2 mph - 0.01 in Rain Rain
7:15 AM 50.0 °F - 50.0 °F 100% 30.04 in 10.0 mi SW 13.8 mph 19.6 mph N/A   Overcast
7:35 AM 48.2 °F - 48.2 °F 100% 30.05 in 5.0 mi SW 12.7 mph 17.3 mph N/A Rain Light Rain
7:55 AM 46.4 °F 41.1 °F 46.4 °F 100% 30.06 in 2.0 mi WSW 11.5 mph 19.6 mph 0.01 in   Overcast
8:15 AM 46.4 °F 41.9 °F 46.4 °F 100% 30.07 in 3.0 mi WSW 9.2 mph - N/A   Overcast
8:35 AM 46.4 °F 42.9 °F 46.4 °F 100% 30.07 in 1.8 mi West 6.9 mph - N/A Rain Light Rain
8:55 AM 46.4 °F 45.2 °F 46.4 °F 100% 30.08 in 3.0 mi West 3.5 mph - N/A   Light Drizzle
9:15 AM 46.4 °F 45.2 °F 46.4 °F 100% 30.09 in 10.0 mi WSW 3.5 mph - N/A   Overcast
9:35 AM 46.4 °F - 46.4 °F 100% 30.10 in 1.5 mi Calm Calm - N/A   Overcast
9:55 AM 44.6 °F - 44.6 °F 100% 30.11 in 0.2 mi Calm Calm - 0.01 in Fog Fog
10:15 AM 44.6 °F - 44.6 °F 100% 30.12 in 1.0 mi Calm Calm - N/A   Drizzle
10:35 AM 44.6 °F 43.1 °F 44.6 °F 100% 30.11 in 1.8 mi NNE 3.5 mph - 0.01 in   Overcast
10:55 AM 42.8 °F 41.1 °F 42.8 °F 100% 30.11 in 0.5 mi NNE 3.5 mph - 0.01 in Fog Fog
11:15 AM 42.8 °F 41.1 °F 42.8 °F 100% 30.11 in 1.0 mi NNW 3.5 mph - N/A   Overcast
11:35 AM 44.6 °F - 44.6 °F 100% 30.11 in 0.5 mi Calm Calm - N/A Fog Fog
11:55 AM 44.6 °F - 44.6 °F 100% 30.10 in 1.0 mi Calm Calm - N/A   Overcast
12:15 PM 44.6 °F 43.1 °F 44.6 °F 100% 30.10 in 7.0 mi SW 3.5 mph - 0.01 in   Overcast
12:35 PM 44.6 °F 42.2 °F 44.6 °F 100% 30.10 in 5.0 mi West 4.6 mph - 0.01 in   Overcast
12:55 PM 44.6 °F 40.7 °F 44.6 °F 100% 30.10 in 1.2 mi West 6.9 mph - 0.01 in   Overcast
1:15 PM 44.6 °F 43.1 °F 44.6 °F 100% 30.10 in 1.8 mi West 3.5 mph - N/A   Light Drizzle
1:35 PM 46.4 °F 42.4 °F 46.4 °F 100% 30.10 in 5.0 mi WSW 8.1 mph - N/A   Overcast
1:55 PM 46.4 °F 42.9 °F 46.4 °F 100% 30.09 in 4.0 mi SW 6.9 mph - N/A   Overcast
2:15 PM 46.4 °F 43.5 °F 46.4 °F 100% 30.09 in 7.0 mi SW 5.8 mph - N/A   Overcast
2:35 PM 48.2 °F - 48.2 °F 100% 30.08 in 10.0 mi WSW 10.4 mph - N/A   Overcast
2:55 PM 50.0 °F - 50.0 °F 100% 30.07 in 10.0 mi SW 11.5 mph - N/A   Mostly Cloudy
3:15 PM 50.0 °F - 44.6 °F 82% 30.07 in 10.0 mi SW 11.5 mph - N/A   Scattered Clouds
3:35 PM 50.0 °F - 42.8 °F 76% 30.07 in 10.0 mi WSW 13.8 mph - N/A   Clear
3:55 PM 46.4 °F 41.9 °F 42.8 °F 87% 30.08 in 10.0 mi West 9.2 mph - N/A   Clear
4:15 PM 46.4 °F 41.9 °F 42.8 °F 87% 30.09 in 10.0 mi WSW 9.2 mph - N/A   Scattered Clouds
4:35 PM 46.4 °F 42.9 °F 42.8 °F 87% 30.10 in 10.0 mi WSW 6.9 mph - N/A   Mostly Cloudy
4:55 PM 44.6 °F 40.7 °F 44.6 °F 100% 30.11 in 5.0 mi NNW 6.9 mph - N/A   Overcast
5:15 PM 42.8 °F 41.1 °F 42.8 °F 100% 30.11 in 3.0 mi NW 3.5 mph - N/A   Overcast
5:35 PM 41.0 °F 37.1 °F 41.0 °F 100% 30.12 in 10.0 mi WNW 5.8 mph - N/A   Overcast
5:55 PM 41.0 °F 39.0 °F 41.0 °F 100% 30.12 in 10.0 mi West 3.5 mph - N/A   Overcast
6:15 PM 41.0 °F 38.0 °F 41.0 °F 100% 30.12 in 10.0 mi NW 4.6 mph - N/A   Overcast
6:35 PM 41.0 °F 39.0 °F 41.0 °F 100% 30.13 in 10.0 mi WNW 3.5 mph - N/A   Overcast
6:55 PM 41.0 °F 39.0 °F 41.0 °F 100% 30.13 in 10.0 mi North 3.5 mph - N/A   Overcast
7:15 PM 39.2 °F 37.0 °F 39.2 °F 100% 30.14 in 10.0 mi NW 3.5 mph - N/A   Overcast
7:35 PM 39.2 °F 35.9 °F 39.2 °F 100% 30.15 in 10.0 mi NNW 4.6 mph - N/A   Overcast
7:55 PM 37.4 °F 32.8 °F 37.4 °F 100% 30.14 in 10.0 mi North 5.8 mph - N/A   Overcast
8:15 PM 37.4 °F 34.9 °F 37.4 °F 100% 30.12 in 10.0 mi North 3.5 mph - N/A   Overcast
8:35 PM 37.4 °F 34.9 °F 37.4 °F 100% 30.11 in 10.0 mi East 3.5 mph - N/A   Overcast
8:55 PM 37.4 °F 32.8 °F 37.4 °F 100% 30.11 in 7.0 mi NNE 5.8 mph - N/A   Overcast
9:15 PM 37.4 °F 33.8 °F 37.4 °F 100% 30.10 in 10.0 mi North 4.6 mph - N/A   Overcast
9:35 PM 37.4 °F 34.9 °F 37.4 °F 100% 30.10 in 7.0 mi North 3.5 mph - N/A   Overcast
9:55 PM 35.6 °F - 35.6 °F 100% 30.10 in 3.0 mi Calm Calm - N/A   Overcast
10:15 PM 35.6 °F 32.8 °F 35.6 °F 100% 30.09 in 3.0 mi North 3.5 mph - N/A   Overcast
10:35 PM 35.6 °F 32.8 °F 35.6 °F 100% 30.07 in 2.0 mi NNE 3.5 mph - N/A   Overcast
10:55 PM 35.6 °F 31.7 °F 35.6 °F 100% 30.05 in 2.5 mi NNE 4.6 mph - N/A   Overcast
11:15 PM 35.6 °F 31.7 °F 35.6 °F 100% 30.05 in 1.2 mi NNE 4.6 mph - N/A   Overcast
11:35 PM 35.6 °F 31.7 °F 35.6 °F 100% 30.03 in 2.0 mi NE 4.6 mph - N/A   Overcast
11:55 PM 35.6 °F 31.7 °F 35.6 °F 100% 30.03 in 1.0 mi NNE 4.6 mph - N/A   Overcast